Dyersburg, TN

11:03 AM CST on December 07, 2019 (GMT -0600)
Dyersburg Municipal

Weather History for KDYR - October, 2019

Change the Weather History Date:

Thursday, October 10, 2019

  Actual Average Record
Temperature  
Mean Temperature 72 °F -  
Max Temperature 86 °F 70 °F 89 °F (2010)
Min Temperature 59 °F 50 °F 30 °F (2000)
Cooling Degree Days 8    
Growing Degree Days 22 (Base 50)    
Moisture  
Dew Point 65 °F    
Average Humidity 76    
Maximum Humidity 96    
Minimum Humidity 53    
Precipitation  
Precipitation 0.00 in - - ()
Sea Level Pressure  
Sea Level Pressure 30.01 in    
Wind  
Wind Speed 6 mph ()    
Max Wind Speed 12 mph    
Max Gust Speed 18 mph    
Visibility 10.0 miles    
Events      
Averages and records for this station are not official NWS values.
T = Trace of Precipitation, MM = Missing Value Source: Averaged Metar Reports

Daily Weather History Graph

Daily Weather History Graph

Search for Another Location

Airport or City:

Astronomy

Oct. 10, 2019 Rise Set
Actual Time 6:59 AM CDT 6:28 PM CDT
Civil Twilight 6:34 AM CDT 6:54 PM CDT
Nautical Twilight 6:04 AM CDT 7:24 PM CDT
Astronomical Twilight 5:34 AM CDT 7:53 PM CDT
Moon 5:22 PM CDT (10/10) 3:52 AM CDT (10/10)
Length of Visible Light 12h 20m
Length of Day
11h 28m
Waxing Gibbous, 91% of the Moon is Illuminated
Oct 10
Waxing Gibbous
Oct 13
Full
Oct 21
Last Quarter
Oct 27
New
Nov 4
First Quarter

Hourly Weather History & Observations

Time (CDT) Temp. Heat Index Dew Point Humidity Pressure Visibility Wind Dir Wind Speed Gust Speed Precip Events Conditions
12:56 AM 59.0 °F - 57.9 °F 96% 30.04 in 10.0 mi Calm Calm - N/A   Clear
1:56 AM 59.0 °F - 57.0 °F 93% 30.04 in 10.0 mi Calm Calm - N/A   Clear
2:56 AM 62.1 °F - 57.9 °F 86% 30.04 in 10.0 mi ESE 4.6 mph - N/A   Partly Cloudy
3:56 AM 64.9 °F - 60.1 °F 84% 30.03 in 10.0 mi SSE 5.8 mph - N/A   Scattered Clouds
4:56 AM 64.9 °F - 61.0 °F 87% 30.03 in 10.0 mi SSE 8.1 mph - N/A   Scattered Clouds
5:56 AM 66.0 °F - 63.0 °F 90% 30.03 in 10.0 mi SSE 10.4 mph 16.1 mph N/A   Mostly Cloudy
6:56 AM 66.9 °F - 64.0 °F 90% 30.03 in 10.0 mi SSE 11.5 mph - N/A   Partly Cloudy
7:56 AM 68.0 °F - 64.0 °F 87% 30.04 in 10.0 mi SSE 10.4 mph 17.3 mph N/A   Mostly Cloudy
8:56 AM 70.0 °F - 64.9 °F 84% 30.06 in 10.0 mi SSE 11.5 mph 16.1 mph N/A   Clear
9:56 AM 73.9 °F - 66.0 °F 76% 30.06 in 10.0 mi SSE 8.1 mph - N/A   Clear
10:56 AM 78.1 °F - 68.0 °F 71% 30.05 in 10.0 mi SSE 8.1 mph - N/A   Clear
11:56 AM 82.0 °F 84.9 °F 68.0 °F 62% 30.04 in 10.0 mi Variable 5.8 mph - N/A   Clear
12:56 PM 82.9 °F 85.8 °F 68.0 °F 60% 30.01 in 10.0 mi South 8.1 mph - N/A   Partly Cloudy
1:56 PM 84.0 °F 86.5 °F 66.9 °F 56% 29.99 in 10.0 mi South 9.2 mph - N/A   Mostly Cloudy
2:56 PM 84.9 °F 87.6 °F 66.9 °F 55% 29.97 in 10.0 mi Variable 6.9 mph - N/A   Clear
3:56 PM 86.0 °F 88.8 °F 66.9 °F 53% 29.95 in 10.0 mi SSE 11.5 mph 18.4 mph N/A   Scattered Clouds
4:56 PM 84.0 °F 87.0 °F 68.0 °F 58% 29.94 in 10.0 mi SE 10.4 mph - N/A   Mostly Cloudy
5:56 PM 82.0 °F 84.5 °F 66.9 °F 60% 29.95 in 10.0 mi SE 5.8 mph - N/A   Partly Cloudy
6:56 PM 79.0 °F - 68.0 °F 69% 29.96 in 10.0 mi SSE 8.1 mph - N/A   Mostly Cloudy
7:56 PM 77.0 °F - 69.1 °F 76% 29.96 in 10.0 mi SE 8.1 mph - N/A   Clear
8:56 PM 75.9 °F - 69.1 °F 79% 29.99 in 10.0 mi SSE 11.5 mph 17.3 mph N/A   Clear
9:56 PM 73.9 °F - 68.0 °F 82% 29.99 in 10.0 mi SSE 9.2 mph - N/A   Clear
10:56 PM 73.9 °F - 66.9 °F 79% 29.99 in 10.0 mi SSE 10.4 mph - N/A   Mostly Cloudy
11:56 PM 73.0 °F - 66.9 °F 81% 29.96 in 10.0 mi SSE 10.4 mph - N/A   Mostly Cloudy